Lid_Strength_Index
-0 0 0 0 0 -0 -0 -0 -0 -0 -0 -0 0 0 0 0 0 0 0 0 0 0 1 1 1 1 5 12 9 3 -1 -1 5 6 7 9 10 10 11 11 11 11 11 10 10 10 10
-1 -0 -0 -0 0 0 -0 -0 -0 -0 -0 -0 -0 0 0 0 0 0 0 0 0 0 0 0 1 1 10 13 8 1 2 5 6 7 9 9 10 10 11 12 11 11 11 11 11 11 11
-0 -0 -1 -0 -0 0 -0 -0 -0 -0 -0 0 0 1 1 1 1 1 1 1 1 1 1 1 1 3 10 11 7 4 5 7 7 8 9 9 9 10 10 12 11 12 13 13 13 12 12
-0 -0 -0 -0 0 0 0 0 0 0 0 1 1 1 1 1 1 1 1 1 1 2 2 1 2 6 13 8 7 7 9 9 8 9 9 9 9 10 11 11 12 14 14 16 13 13 13
-1 -0 -0 -0 0 0 0 0 0 1 1 1 1 2 2 1 1 1 1 1 2 2 2 2 7 12 13 6 9 9 9 10 10 10 9 9 10 12 12 14 16 16 17 17 16 13 13
-0 -0 -0 -0 -0 -0 0 0 0 1 1 1 2 2 2 2 2 2 2 3 3 3 4 3 6 13 11 12 9 9 10 9 10 10 11 11 13 14 15 15 18 17 18 17 17 13 15
-0 -0 0 -0 0 -0 0 0 1 1 1 1 1 2 2 2 2 2 6 9 11 12 10 12 12 13 13 10 9 10 9 10 11 12 14 13 15 16 14 14 15 17 17 18 16 14 15
1 0 0 0 0 0 1 1 0 0 1 1 2 2 1 1 1 3 8 10 11 10 14 10 10 10 10 9 11 10 9 11 12 14 14 15 16 13 14 15 15 16 17 17 15 14 16
1 1 0 1 1 1 1 1 1 0 0 1 1 2 2 2 3 7 10 10 8 9 15 13 12 12 12 10 12 11 10 11 13 15 15 15 14 13 14 16 16 17 17 16 17 16 16
0 0 1 1 1 1 2 2 2 2 2 2 1 2 2 2 5 8 9 9 8 11 15 14 14 13 12 12 14 11 11 12 14 14 15 15 14 14 16 15 15 17 15 15 16 18 19
0 1 2 2 2 2 3 3 3 3 3 3 3 2 2 3 6 7 8 8 9 13 19 13 15 11 12 14 14 13 12 13 15 15 15 15 15 16 16 15 15 15 15 16 17 18 19
2 2 2 3 3 4 4 4 4 5 5 4 4 3 3 4 6 7 8 8 11 13 19 13 15 15 15 14 14 13 13 13 14 15 16 15 15 14 14 15 14 15 16 17 18 18 21
2 2 3 4 4 4 5 5 5 6 6 6 6 5 3 4 5 7 7 6 13 17 11 14 16 15 16 16 15 15 15 15 16 17 17 17 16 15 14 16 16 15 16 20 21 22 21
3 3 4 5 5 5 6 6 6 7 6 6 6 5 3 3 5 6 5 9 17 13 13 12 12 13 14 14 14 15 15 16 15 16 18 17 16 15 14 14 15 16 16 18 21 21 18
4 4 5 6 6 6 7 7 7 7 7 7 6 5 5 3 5 4 6 14 15 14 11 12 11 15 15 14 12 15 16 16 14 14 14 16 17 15 14 14 13 16 17 13 16 17 18
4 5 6 7 7 8 8 8 8 8 8 8 9 7 6 3 3 4 9 13 12 10 9 10 15 12 16 13 12 13 13 13 13 12 11 13 16 14 14 14 13 13 12 16 17 20 20
4 5 5 6 7 8 8 8 9 9 8 7 9 9 6 2 2 6 12 12 10 7 8 10 12 12 12 13 11 13 13 11 11 12 12 13 12 14 12 15 14 14 15 15 14 15 18
5 5 7 7 7 8 8 7 7 6 5 5 7 12 3 1 9 8 11 9 8 9 7 8 9 10 12 11 12 13 13 11 9 11 12 11 12 16 14 11 12 12 11 12 17 18 15
5 5 5 5 6 6 6 6 5 5 5 7 9 9 2 2 12 11 9 9 8 9 9 9 10 9 9 11 14 11 11 8 8 9 11 10 14 18 16 13 12 13 12 12 12 14 17
4 5 5 5 6 5 6 5 5 5 5 8 10 13 8 5 7 9 10 10 10 8 9 8 9 9 10 11 10 12 11 9 9 9 7 8 13 15 17 14 12 15 13 12 13 16 16
4 4 5 5 4 4 5 6 5 4 5 9 12 13 10 12 11 10 9 10 11 11 8 8 10 10 11 13 13 12 11 10 9 8 10 9 15 13 13 12 12 13 13 14 15 13 16
4 4 5 4 4 3 4 4 5 4 5 11 13 14 12 11 10 12 10 11 11 10 9 10 10 9 9 12 11 13 11 11 11 10 11 9 14 14 17 13 13 14 13 13 13 14 14
4 3 3 3 3 3 3 3 3 3 6 12 11 10 11 13 13 14 14 12 12 11 11 12 12 11 12 11 10 10 10 10 10 11 12 11 13 15 17 14 14 17 16 14 13 12 13
3 3 3 3 3 3 2 3 3 3 4 8 10 11 15 17 13 13 12 12 13 13 13 12 11 12 11 10 10 11 11 11 11 11 10 12 14 14 16 19 21 15 14 13 14 15 16
2 2 1 2 2 2 2 2 3 2 3 8 8 11 15 19 13 13 13 13 13 14 13 13 12 11 11 13 15 23 23 20 16 13 13 11 13 20 19 22 17 15 14 15 15 17 14
2 1 1 1 1 1 1 1 1 2 2 5 6 6 10 17 17 12 14 13 17 18 17 14 13 13 12 15 22 28 26 23 23 19 14 12 12 14 24 24 28 17 14 12 14 21 16
1 1 1 1 1 1 1 1 1 1 2 6 6 6 8 13 12 12 14 14 13 15 19 19 18 16 13 17 30 27 26 16 22 24 22 25 24 17 17 18 20 16 14 12 23 20 15
1 1 2 1 1 1 1 1 1 1 1 3 6 6 7 10 11 11 10 13 13 15 18 18 17 17 17 23 25 18 22 17 19 17 17 18 24 28 29 27 24 14 14 17 15 13 13
1 1 1 1 1 1 2 1 2 2 1 1 6 5 4 8 11 9 8 8 8 9 12 17 14 19 13 18 21 19 23 21 20 23 15 19 16 21 19 20 13 12 12 10 9 11 11